Watford City, ND

9:01 AM CDT on September 26, 2016 (GMT -0500)
Watford City

Weather History for KS25 - December, 2013

Change the Weather History Date:

Thursday, December 19, 2013

  Actual Average (KISN) Record (KISN)
Temperature  
Mean Temperature -4 °F 13 °F  
Max Temperature 3 °F 23 °F 51 °F (2004)
Min Temperature -11 °F 2 °F -40 °F (1983)
Degree Days  
Heating Degree Days 69 52  
Month to date heating degree days 942  
Since 1 July heating degree days 3104  
Cooling Degree Days 0 0  
Month to date cooling degree days 0  
Year to date cooling degree days 456  
Moisture  
Dew Point -7 °F    
Average Humidity 81    
Maximum Humidity 85    
Minimum Humidity 72    
Precipitation  
Precipitation 0.30 in 0.02 in 0.16 in (1958)
Month to date precipitation 0.37  
Year to date precipitation 14.12  
Sea Level Pressure  
Sea Level Pressure 30.11 in    
Wind  
Wind Speed 9 mph (North)    
Max Wind Speed 13 mph    
Max Gust Speed -    
Visibility 8 miles    
Events Snow    
T = Trace of Precipitation, MM = Missing Value Source: NWS Daily Summary

Daily Weather History Graph

Daily Weather History Graph

Search for Another Location

Airport or City:

Trip Planner

Search our weather history database for the weather conditions in past years. The results will help you decide how hot, cold, wet, or windy it might be!

Date:

Astronomy

Dec. 19, 2013 Rise Set
Actual Time 8:38 AM CST 5:02 PM CST
Civil Twilight 8:02 AM CST 5:38 PM CST
Nautical Twilight 7:22 AM CST 6:18 PM CST
Astronomical Twilight 6:44 AM CST 6:55 PM CST
Moon 7:39 PM CST (12/19) 9:49 AM CST (12/19)
Length of Visible Light 9h 36m
Length of Day
8h 24m
Waning Gibbous, 95% of the Moon is Illuminated
Dec 19
Waning Gibbous
Dec 25
Last Quarter
Jan 1
New
Jan 7
First Quarter
Jan 15
Full

Hourly Weather History & Observations

Time (CST) Temp. Windchill Dew Point Humidity Pressure Visibility Wind Dir Wind Speed Gust Speed Precip Events Conditions
12:15 AM 1.4 °F -16.1 °F -2.2 °F 85% 30.06 in 10.0 mi North 12.7 mph - N/A   Overcast
12:35 AM 1.4 °F -16.1 °F -2.2 °F 85% 30.06 in 10.0 mi NNE 12.7 mph - N/A   Overcast
12:55 AM 1.4 °F -15.3 °F -4.0 °F 78% 30.06 in 10.0 mi North 11.5 mph - N/A   Overcast
1:15 AM -0.4 °F -18.4 °F -4.0 °F 85% 30.06 in 10.0 mi NNE 12.7 mph - N/A   Overcast
1:35 AM -0.4 °F -17.6 °F -4.0 °F 85% 30.05 in 10.0 mi NNE 11.5 mph - N/A   Partly Cloudy
1:55 AM -0.4 °F -15.7 °F -4.0 °F 85% 30.05 in 10.0 mi NE 9.2 mph - N/A   Clear
2:15 AM 1.4 °F -15.3 °F -4.0 °F 78% 30.05 in 10.0 mi NE 11.5 mph - N/A   Clear
2:35 AM 1.4 °F -13.5 °F -4.0 °F 78% 30.05 in 10.0 mi NE 9.2 mph - N/A   Clear
2:55 AM 1.4 °F -16.1 °F -4.0 °F 78% 30.05 in 10.0 mi NE 12.7 mph - N/A   Clear
3:15 AM 1.4 °F -14.5 °F -4.0 °F 78% 30.05 in 10.0 mi NE 10.4 mph - N/A   Clear
3:35 AM 1.4 °F -15.3 °F -4.0 °F 78% 30.06 in 10.0 mi NNE 11.5 mph - N/A   Clear
3:55 AM 1.4 °F -15.3 °F -4.0 °F 78% 30.06 in 10.0 mi NE 11.5 mph - N/A   Partly Cloudy
4:15 AM 1.4 °F -13.5 °F -4.0 °F 78% 30.07 in 10.0 mi NE 9.2 mph - N/A   Partly Cloudy
4:35 AM 1.4 °F -14.5 °F -4.0 °F 78% 30.07 in 10.0 mi NNE 10.4 mph - N/A   Partly Cloudy
4:55 AM 1.4 °F -12.5 °F -4.0 °F 78% 30.07 in 10.0 mi NNE 8.1 mph - N/A   Partly Cloudy
5:15 AM 1.4 °F -14.5 °F -4.0 °F 78% 30.08 in 10.0 mi NNE 10.4 mph - N/A   Clear
5:35 AM 1.4 °F -12.5 °F -4.0 °F 78% 30.09 in 10.0 mi NNE 8.1 mph - N/A   Clear
5:55 AM 1.4 °F -14.5 °F -4.0 °F 78% 30.10 in 10.0 mi NNE 10.4 mph - N/A   Clear
6:15 AM -0.4 °F -15.7 °F -4.0 °F 85% 30.10 in 10.0 mi NNE 9.2 mph - N/A   Partly Cloudy
6:35 AM -0.4 °F -17.6 °F -4.0 °F 85% 30.10 in 10.0 mi NNE 11.5 mph - N/A   Partly Cloudy
6:55 AM -0.4 °F -17.6 °F -4.0 °F 85% 30.10 in 10.0 mi North 11.5 mph - N/A   Clear
7:15 AM -0.4 °F -17.6 °F -4.0 °F 85% 30.11 in 10.0 mi NNE 11.5 mph - N/A   Clear
7:35 AM -0.4 °F -18.4 °F -5.8 °F 78% 30.11 in 10.0 mi North 12.7 mph - N/A   Mostly Cloudy
7:55 AM -0.4 °F -17.6 °F -5.8 °F 78% 30.11 in 10.0 mi NNE 11.5 mph - N/A Snow Light Snow
8:15 AM -0.4 °F -17.6 °F -5.8 °F 78% 30.12 in 7.0 mi NNE 11.5 mph - N/A Snow Light Snow
8:35 AM -0.4 °F -13.4 °F -5.8 °F 78% 30.13 in 3.0 mi NNE 6.9 mph - N/A Snow Light Snow
8:55 AM -0.4 °F -13.4 °F -4.0 °F 85% 30.15 in 1.0 mi NNE 6.9 mph - 0.01 in Snow Light Snow
9:15 AM -0.4 °F -13.4 °F -4.0 °F 85% 30.16 in 1.0 mi North 6.9 mph - 0.03 in Snow Light Snow
9:35 AM -0.4 °F -14.7 °F -4.0 °F 85% 30.17 in 0.8 mi NNE 8.1 mph - 0.09 in Snow Light Snow
9:55 AM -0.4 °F -15.7 °F -4.0 °F 85% 30.19 in 1.0 mi North 9.2 mph - 0.14 in Snow Light Snow
10:15 AM -0.4 °F -16.7 °F -4.0 °F 85% 30.19 in 1.2 mi North 10.4 mph - 0.02 in Snow Light Snow
10:35 AM -0.4 °F -14.7 °F -4.0 °F 85% 30.20 in 1.0 mi North 8.1 mph - 0.06 in Snow Light Snow
10:55 AM -0.4 °F -13.4 °F -4.0 °F 85% 30.20 in 1.5 mi NNE 6.9 mph - 0.08 in Snow Light Snow
11:15 AM -0.4 °F -13.4 °F -4.0 °F 85% 30.21 in 1.2 mi NNE 6.9 mph - 0.01 in Snow Light Snow
11:35 AM -0.4 °F -13.4 °F -4.0 °F 85% 30.20 in 1.2 mi NNE 6.9 mph - 0.03 in Snow Light Snow
11:55 AM -0.4 °F -14.7 °F -4.0 °F 85% 30.20 in 1.8 mi NNE 8.1 mph - 0.05 in Snow Light Snow
12:15 PM -0.4 °F -13.4 °F -4.0 °F 85% 30.20 in 1.8 mi North 6.9 mph - N/A Snow Light Snow
12:35 PM 1.4 °F -12.5 °F -4.0 °F 78% 30.19 in 1.5 mi North 8.1 mph - 0.01 in Snow Light Snow
12:55 PM 1.4 °F -9.9 °F -4.0 °F 78% 30.18 in 1.8 mi North 5.8 mph - 0.02 in Snow Light Snow
1:15 PM 1.4 °F -6.2 °F -4.0 °F 78% 30.17 in 3.0 mi North 3.5 mph - N/A Snow Light Snow
1:35 PM 1.4 °F - -4.0 °F 78% 30.15 in 5.0 mi Calm Calm - N/A Snow Light Snow
1:55 PM 1.4 °F -6.2 °F -4.0 °F 78% 30.14 in 5.0 mi ESE 3.5 mph - N/A   Haze
2:15 PM 1.4 °F -6.2 °F -4.0 °F 78% 30.13 in 10.0 mi ESE 3.5 mph - N/A   Clear
2:35 PM 1.4 °F -6.2 °F -4.0 °F 78% 30.13 in 10.0 mi SSW 3.5 mph - N/A   Clear
2:55 PM 1.4 °F - -4.0 °F 78% 30.14 in 10.0 mi Calm Calm - N/A   Clear
3:15 PM 1.4 °F - -4.0 °F 78% 30.13 in 10.0 mi Calm Calm - N/A   Clear
3:35 PM 3.2 °F - -4.0 °F 72% 30.13 in 10.0 mi Calm Calm - N/A   Clear
3:55 PM 1.4 °F -6.2 °F -4.0 °F 78% 30.14 in 10.0 mi West 3.5 mph - N/A   Clear
4:15 PM 1.4 °F -6.2 °F -4.0 °F 78% 30.13 in 10.0 mi WNW 3.5 mph - N/A   Clear
4:35 PM -0.4 °F -8.3 °F -4.0 °F 85% 30.13 in 10.0 mi WSW 3.5 mph - N/A   Clear
4:55 PM -0.4 °F -8.3 °F -4.0 °F 85% 30.14 in 10.0 mi West 3.5 mph - N/A   Clear
5:15 PM -0.4 °F -16.7 °F -5.8 °F 78% 30.16 in 10.0 mi NW 10.4 mph - N/A   Clear
5:35 PM -0.4 °F -13.4 °F -7.6 °F 72% 30.16 in 10.0 mi NW 6.9 mph - N/A   Clear
5:55 PM -2.2 °F -10.4 °F -7.6 °F 78% 30.16 in 10.0 mi West 3.5 mph - N/A   Clear
6:15 PM -4.0 °F -14.6 °F -9.4 °F 78% 30.15 in 10.0 mi WSW 4.6 mph - N/A   Clear
6:35 PM -5.8 °F -16.7 °F -9.4 °F 84% 30.15 in 10.0 mi WSW 4.6 mph - N/A   Clear
6:55 PM -4.0 °F -16.3 °F -9.4 °F 78% 30.13 in 10.0 mi SSW 5.8 mph - N/A   Clear
7:15 PM -4.0 °F -14.6 °F -9.4 °F 78% 30.12 in 10.0 mi SW 4.6 mph - N/A   Clear
7:35 PM -9.4 °F -22.7 °F -13.0 °F 84% 30.12 in 10.0 mi WSW 5.8 mph - N/A   Clear
7:55 PM -9.4 °F -24.3 °F -13.0 °F 84% 30.11 in 10.0 mi SSW 6.9 mph - N/A   Clear
8:15 PM -9.4 °F -22.7 °F -13.0 °F 84% 30.09 in 10.0 mi SW 5.8 mph - N/A   Clear
8:35 PM -9.4 °F -22.7 °F -14.8 °F 77% 30.08 in 10.0 mi WSW 5.8 mph - N/A   Clear
8:55 PM -11.2 °F - -14.8 °F 84% 30.08 in 10.0 mi Calm Calm - N/A   Clear
9:15 PM -9.4 °F -20.9 °F -14.8 °F 77% 30.08 in 10.0 mi West 4.6 mph - N/A   Clear
9:35 PM -11.2 °F -24.8 °F -14.8 °F 84% 30.08 in 10.0 mi SSW 5.8 mph - N/A   Clear
9:55 PM -9.4 °F -20.9 °F -13.0 °F 84% 30.08 in 10.0 mi SW 4.6 mph - N/A   Clear
10:15 PM -9.4 °F - -13.0 °F 84% 30.07 in 10.0 mi Calm Calm - N/A   Clear
10:35 PM -9.4 °F -18.6 °F -14.8 °F 77% 30.06 in 10.0 mi WSW 3.5 mph - N/A   Clear
10:55 PM -11.2 °F -26.4 °F -14.8 °F 84% 30.05 in 10.0 mi WSW 6.9 mph - N/A   Clear
11:15 PM -11.2 °F -20.6 °F -16.6 °F 77% 30.04 in 10.0 mi WSW 3.5 mph - N/A   Clear
11:35 PM -11.2 °F -24.8 °F -16.6 °F 77% 30.03 in 10.0 mi SW 5.8 mph - N/A   Clear
11:55 PM -11.2 °F -20.6 °F -16.6 °F 77% 30.04 in 10.0 mi WSW 3.5 mph - N/A   Clear